Weather History for Ottumwa, IA

Change the Weather History Date:

Saturday, June 16, 2012

  Actual Average Record
Temperature  
Mean Temperature 76 °F 71 °F  
Max Temperature 86 °F 82 °F 97 °F (1936)
Min Temperature 65 °F 61 °F 48 °F (1917)
Degree Days  
Heating Degree Days 0 0  
Month to date heating degree days 13 19  
Since 1 June heating degree days 13 19  
Since 1 July heating degree days 5038 6315  
Cooling Degree Days 11 7  
Month to date cooling degree days 85 82  
Year to date cooling degree days 239 146  
Since 1 June cooling degree days 85 82  
Growing Degree Days 24 (Base 50)    
Moisture  
Dew Point 68 °F    
Average Humidity 83    
Maximum Humidity 100    
Minimum Humidity 65    
Precipitation  
Precipitation 1.73 in 0.17 in 2.24 in (1990)
Month to date precipitation 2.86 2.74  
Year to date precipitation 14.21 15.27  
Sea Level Pressure  
Sea Level Pressure 29.93 in    
Wind  
Wind Speed 7 mph (SW)    
Max Wind Speed 45 mph    
Max Gust Speed 62 mph    
Visibility 7 miles    
Events Fog , Rain , Thunderstorm    
T = Trace of Precipitation, MM = Missing Value Source: NWS Daily Summary

Daily Weather History Graph

Daily Weather History Graph

Search for Another Location

Airport:

Trip Planner

Search our weather history database for the weather conditions in past years. The results will help you decide how hot, cold, wet, or windy it might be!

Date:

Astronomy

Jun. 16, 2012 Rise Set
Actual Time 5:36 AM CDT 8:44 PM CDT
Civil Twilight 5:03 AM CDT 9:18 PM CDT
Nautical Twilight 4:19 AM CDT 10:01 PM CDT
Astronomical Twilight 3:28 AM CDT 10:52 PM CDT
Moon 3:27 AM CDT (6/16) 6:19 PM CDT (6/16)
Length of Visible Light 16h 15m
Length of Day
15h 07m
Waning Crescent, 8% of the Moon is Illuminated
Jun 16
Waning Crescent
Jun 19
New
Jun 26
First Quarter
Jul 3
Full
Jul 10
Last Quarter

Hourly Weather History & Observations

Time (CDT) Temp. Heat Index Dew Point Humidity Pressure Visibility Wind Dir Wind Speed Gust Speed Precip Events Conditions
12:53 AM 68.0 °F - 66.9 °F 96% 29.91 in 10.0 mi SSE 9.2 mph - 0.00 in   Overcast
1:53 AM 68.0 °F - 66.9 °F 96% 29.91 in 8.0 mi South 8.1 mph - N/A   Overcast
2:53 AM 68.0 °F - 66.9 °F 96% 29.91 in 7.0 mi South 5.8 mph - N/A   Mostly Cloudy
3:53 AM 69.1 °F - 66.9 °F 93% 29.91 in 8.0 mi South 5.8 mph - 0.00 in Rain Light Rain
4:53 AM 69.8 °F - 68.0 °F 94% 29.94 in 7.0 mi South 4.6 mph - N/A   Overcast
5:53 AM 69.1 °F - 66.9 °F 93% 29.93 in 6.0 mi South 6.9 mph - 0.00 in   Mostly Cloudy
6:53 AM 69.1 °F - 66.9 °F 93% 29.96 in 7.0 mi SSW 4.6 mph - N/A   Scattered Clouds
7:53 AM 71.1 °F - 68.0 °F 90% 29.97 in 10.0 mi SW 5.8 mph - N/A   Mostly Cloudy
8:53 AM 73.9 °F - 69.1 °F 85% 29.98 in 10.0 mi WSW 6.9 mph - N/A   Clear
9:53 AM 75.9 °F - 69.1 °F 79% 29.97 in 10.0 mi WSW 8.1 mph - N/A   Partly Cloudy
10:53 AM 79.0 °F - 70.0 °F 74% 29.96 in 10.0 mi SW 9.2 mph - 0.00 in Rain Light Rain
11:53 AM 82.0 °F 86.7 °F 72.0 °F 71% 29.96 in 10.0 mi WSW 11.5 mph - 0.00 in   Partly Cloudy
12:53 PM 82.9 °F 88.0 °F 72.0 °F 69% 29.95 in 10.0 mi SW 10.4 mph - N/A   Clear
1:53 PM 82.9 °F 88.0 °F 72.0 °F 69% 29.91 in 10.0 mi WSW 6.9 mph - 0.00 in   Clear
2:53 PM 84.0 °F 89.0 °F 71.1 °F 65% 29.88 in 10.0 mi South 3.5 mph - N/A   Partly Cloudy
3:53 PM 79.0 °F - 71.1 °F 77% 29.84 in 10.0 mi ESE 12.7 mph - N/A   Overcast
4:03 PM 78.8 °F - 71.6 °F 78% 29.86 in 8.0 mi ESE 11.5 mph - 0.00 in Rain , Thunderstorm Light Rain
4:20 PM 77.0 °F - 73.4 °F 89% 29.91 in 1.8 mi NW 6.9 mph - 0.07 in Rain , Thunderstorm Heavy Thunderstorms and Rain
4:34 PM 68.0 °F - 66.2 °F 94% 29.96 in 0.2 mi WSW 44.9 mph 62.1 mph 0.71 in Fog , Rain , Thunderstorm Heavy Thunderstorms and Rain
4:41 PM 64.4 °F - 64.4 °F 100% 29.97 in 0.2 mi SW 16.1 mph 62.1 mph 1.18 in Fog , Rain , Thunderstorm Heavy Thunderstorms and Rain
4:45 PM 66.2 °F - 64.4 °F 94% 29.95 in 0.5 mi SW 10.4 mph 29.9 mph 1.28 in Fog , Rain , Thunderstorm Heavy Thunderstorms and Rain
4:53 PM 66.0 °F - 64.0 °F 93% 29.93 in 1.8 mi NW 11.5 mph 19.6 mph 1.40 in Rain , Thunderstorm Heavy Thunderstorms and Rain
4:58 PM 66.2 °F - 64.4 °F 94% 29.94 in 3.0 mi NW 6.9 mph - 0.01 in Rain , Thunderstorm Thunderstorms and Rain
5:09 PM 66.2 °F - 66.2 °F 100% 29.93 in 9.0 mi Calm Calm - 0.01 in Rain , Thunderstorm Light Thunderstorms and Rain
5:30 PM 66.2 °F - 66.2 °F 100% 29.96 in 4.0 mi WSW 10.4 mph 16.1 mph 0.06 in Rain , Thunderstorm Rain
5:53 PM 66.0 °F - 66.0 °F 100% 29.91 in 3.0 mi WNW 11.5 mph - 0.17 in Rain , Thunderstorm Heavy Thunderstorms and Rain
6:18 PM 69.8 °F - 69.8 °F 100% 29.92 in 6.0 mi WNW 11.5 mph - 0.06 in Rain Light Rain
6:28 PM 69.8 °F - 69.8 °F 100% 29.93 in 5.0 mi WSW 8.1 mph - 0.08 in Rain Rain
6:53 PM 70.0 °F - 69.1 °F 97% 29.92 in 10.0 mi SSW 3.5 mph - 0.09 in   Mostly Cloudy
7:53 PM 70.0 °F - 68.0 °F 93% 29.90 in 10.0 mi Calm Calm - 0.00 in   Overcast
8:04 PM 69.8 °F - 66.2 °F 88% 29.93 in 10.0 mi SW 5.8 mph - N/A   Overcast
8:53 PM 68.0 °F - 66.9 °F 96% 29.91 in 10.0 mi SW 5.8 mph - N/A   Mostly Cloudy
9:53 PM 66.9 °F - 66.0 °F 97% 29.93 in 10.0 mi SSW 5.8 mph - N/A   Clear
10:53 PM 66.9 °F - 66.0 °F 97% 29.94 in 10.0 mi SW 4.6 mph - N/A   Clear
11:53 PM 66.9 °F - 66.0 °F 97% 29.94 in 10.0 mi West 4.6 mph - N/A   Clear